Погода в Убатубе

Бразилия     23°26′37″S   45°05′31″W
темп.,
°C
ветер,
м/с
пор.,
м/с
влажн.,
%
обл.,
%
осадки,
мм/ч
давл.,
гПа
погр.,
м
26 февраля, пт
пт2600:00+23всв3381100 0.9 1013536
03:00+23св127975 0.9 1011477
06:00+23сз118253 0.3 1012229
09:00+24з118057 0.3 1013221
12:00+24ююв127897 0.3 1013388
15:00+23юз008999 1.9 1012145
18:00+23св2289100 3.1 1012210
21:00+23в2285100 4.8 1014379
27 февраля, сб
сб2700:00+24св1284100 0.1 1014368
03:00+23сз1185100 0.9 1013186
06:00+23с1188100 0.3 1013249
09:00+24с0085100 0.3 1015204
12:00+24всв1181100 0.3 1015204
15:00+25в0179100 0.4 1013244
18:00+25ссз1178100 0.0 1013365
21:00+25ссз217996 0.0 1014253
28 февраля, вс
вс2800:00+24сз217976 0.0 1015137
03:00+24зсз228176 0.0 1013139
06:00+23сз22800 0.0 1014118
09:00+25юв11700 0.0 1015215
12:00+26в44750 0.1 1014407
15:00+26в337617 1.0 1012419
18:00+25ссв1281100 0.3 1012274
21:00+24с2287100 0.7 1014195
1 марта, пн
пн100:00+24сз1283100 0.4 1014116
03:00+24зсз228190 0.8 1012115
06:00+24ссз227794 0.0 1013100
09:00+26в127097 0.0 1014236
12:00+26вюв3372100 0.0 1013272
15:00+27в337180 0.0 1011295
18:00+26в33810 0.1 1011340
21:00+26ссв228121 0.1 1013209
2 марта, вт
вт200:00+25з237886 0.0 1013133
03:00+25сз227193 0.0 101295
06:00+25ссз227064 0.0 101398
09:00+27ю216566 0.0 1014188
12:00+27вюв336872 0.0 1014228
15:00+28всв226584 0.2 1012300
18:00+27в227497 0.2 1012113
21:00+26с127898 0.2 101445